Location: Days
(41.3591°N, 106.7339°W)
Time: 22:51:46
(UTC+00:00)

UWE-3 - Pass Details

Date: 03 July 2022
Orbit: 583 x 677 km, 97.7° (Epoch: 09 August)

Event Time Altitude Azimuth Distance (km) Brightness Sun altitude
Rises 09:24:47 0° 31° (NNE) 2,912 ? -18.6°
Reaches altitude 10° 09:27:42 10° 52° (NE) 2,019 ? -18.3°
Maximum altitude 09:30:31 17° 92° (E) 1,641 ? -18.0°
Drops below altitude 10° 09:33:21 10° 132° (SE) 2,046 ? -17.8°
Enters shadow 09:35:18 - 148° (SSE) 2,626 ? -17.5°
